This demonstration page uses our WeatherBlox Daily Observations layout. Learn more.

39.51506, -84.39828

Hourly Observations for September 20, 2019

Temp ( °F °C ) Dew Point ( °F °C ) Humidity (%) Winds ( mph kmh ) Pressure ( in mb ) Visibility ( mi km ) Precip ( " mm )
12:15 am 00:15 Clear 70 21 66 18.7 87 87 ENE 3 6 30.09 1019 10 16.09344 N/A
12:35 am 00:35 Clear 69 20.4 65 18.5 89 89 Calm 30.09 1019 10 16.09344 N/A
12:55 am 00:55 Clear 69 20.4 66 18.9 91 91 Calm 30.09 1019 10 16.09344 N/A
1:15 am 01:15 Mostly Cloudy 68 20 66 19 94 94 Calm 30.09 1019 10 16.09344 N/A
1:35 am 01:35 Partly Cloudy 67 19.7 66 18.9 95 95 Calm 30.09 1019 10 16.09344 N/A
1:55 am 01:55 Clear 66 18.8 65 18.2 96 96 Calm 30.09 1019 10 16.09344 N/A
2:15 am 02:15 Clear 66 18.8 64 18 95 95 Calm 30.09 1019 10 16.09344 N/A
2:35 am 02:35 Clear 65 18.5 64 18 97 97 Calm 30.09 1019 10 16.09344 N/A
2:55 am 02:55 Clear 65 18.4 64 18 98 98 Calm 30.09 1019 7 11.265408 N/A
3:15 am 03:15 Clear 65 18.4 64 17.9 97 97 Calm 30.09 1019 10 16.09344 N/A
3:35 am 03:35 Clear 65 18.2 64 17.8 98 98 Calm 30.12 1020 10 16.09344 N/A
3:55 am 03:55 Partly Cloudy with Mist and Fog 64 17.7 63 17.4 98 98 Calm 30.12 1020 4 6.437376 N/A
4:15 am 04:15 Mostly Cloudy 64 17.8 63 17.4 98 98 Calm 30.12 1020 7 11.265408 N/A
4:35 am 04:35 Clear 64 18 64 17.7 98 98 Calm 30.12 1020 10 16.09344 N/A
4:55 am 04:55 Clear with Mist and Fog 63 17 63 17 100 100 Calm 30.12 1020 2.5 4.02336 N/A
5:15 am 05:15 Mostly Cloudy with Mist and Fog 64 17.7 64 17.5 99 99 Calm 30.12 1020 1.5 2.414016 N/A
5:35 am 05:35 Clear with Mist and Fog 63 17.4 63 17.2 99 99 Calm 30.12 1020 7 11.265408 N/A
5:55 am 05:55 Clear with Mist and Fog 63 17 62 16.8 99 99 Calm 30.12 1020 5 8.04672 N/A
6:15 am 06:15 Clear with Mist and Fog 62 16.7 62 16.6 99 99 Calm 30.12 1020 3 4.828032 N/A
6:35 am 06:35 Mostly Cloudy with Mist and Fog 63 17.1 63 17 99 99 Calm 30.12 1020 0.75 1.207008 N/A
6:55 am 06:55 Mostly Cloudy with Mist and Fog 63 17.3 63 17.2 99 99 Calm 30.12 1020 5 8.04672 N/A
7:15 am 07:15 Mostly Cloudy with Mist and Fog 63 17.1 63 17 99 99 Calm 30.15 1021 7 11.265408 N/A
7:35 am 07:35 Sunny with Mist and Fog 62 16.6 62 16.4 99 99 Calm 30.18 1022 2.5 4.02336 N/A
7:55 am 07:55 Sunny with Mist and Fog 62 16.9 62 16.8 99 99 Calm 30.18 1022 3 4.828032 N/A
8:15 am 08:15 Sunny 64 17.6 63 17.4 99 99 Calm 30.15 1021 7 11.265408 N/A
8:35 am 08:35 Sunny with Mist and Fog 66 18.7 65 18.4 98 98 Calm 30.15 1021 7 11.265408 N/A
8:55 am 08:55 Mostly Cloudy 70 21.1 66 19 88 88 S 7 11 30.15 1021 10 16.09344 N/A
9:15 am 09:15 Cloudy 72 22.1 65 18.6 81 81 SSW 7 11 30.15 1021 10 16.09344 N/A
9:35 am 09:35 Partly Cloudy 73 22.7 65 18.6 78 78 S 6 9 30.15 1021 10 16.09344 N/A
9:55 am 09:55 Cloudy 75 24 66 18.8 73 73 SW 8 13 30.15 1021 10 16.09344 N/A
10:15 am 10:15 Cloudy 74 23.2 66 18.8 76 76 SW 7 11 30.15 1021 10 16.09344 N/A
10:35 am 10:35 Cloudy 75 23.8 66 18.9 74 74 SSW 8 13 30.15 1021 10 16.09344 N/A
10:55 am 10:55 Cloudy 76 24.6 67 19.3 72 72 SW 12 19 30.15 1021 10 16.09344 N/A
11:15 am 11:15 Partly Cloudy 79 25.9 67 19.5 68 68 SW 9 15 30.18 1022 10 16.09344 N/A
11:35 am 11:35 Sunny 78 25.7 67 19.5 69 69 WSW 8 13 30.15 1021 10 16.09344 N/A
11:55 am 11:55 Sunny 79 26.1 68 19.9 69 69 SW 9 15 30.15 1021 10 16.09344 N/A
12:15 pm 12:15 Sunny 80 26.9 68 20.1 66 66 SSW 9 15 30.15 1021 10 16.09344 N/A
12:35 pm 12:35 Sunny 82 27.8 69 20.5 65 65 SW 7 11 30.15 1021 10 16.09344 N/A
12:55 pm 12:55 Sunny 83 28.4 69 20.3 62 62 SSW 9 15 30.15 1021 10 16.09344 N/A
1:15 pm 13:15 Sunny 84 28.7 68 20 59 59 SSW 9 15 30.15 1021 10 16.09344 N/A
1:35 pm 13:35 Sunny 84 29.1 68 20.1 58 58 SSW 10 17 30.15 1021 10 16.09344 N/A
1:55 pm 13:55 Sunny 85 29.6 68 19.8 56 56 SSE 9 15 30.09 1019 10 16.09344 N/A
2:15 pm 14:15 Sunny 86 29.8 68 19.9 55 55 SSW 8 13 30.09 1019 10 16.09344 N/A
2:35 pm 14:35 Sunny 87 30.4 68 20.2 54 54 SW 6 9 30.09 1019 10 16.09344 N/A
2:55 pm 14:55 Sunny 87 30.5 68 19.9 53 53 SSW 9 15 30.09 1019 10 16.09344 N/A
3:15 pm 15:15 Sunny 87 30.7 68 20.1 53 53 S 9 15 30.09 1019 10 16.09344 N/A
3:35 pm 15:35 Partly Cloudy 86 30 66 19 52 52 SW 8 13 30.09 1019 10 16.09344 N/A
3:55 pm 15:55 Sunny 85 29.7 67 19.4 54 54 SSW 7 11 30.09 1019 10 16.09344 N/A
4:15 pm 16:15 Partly Cloudy 87 30.3 66 19 51 51 SW 8 13 30.09 1019 10 16.09344 N/A
4:35 pm 16:35 Partly Cloudy 86 30 66 18.8 51 51 SW 8 13 30.06 1018 10 16.09344 N/A
4:55 pm 16:55 Partly Cloudy 86 29.8 65 18.1 49 49 SW 8 13 30.06 1018 10 16.09344 N/A
5:15 pm 17:15 Partly Cloudy 87 30.8 65 18.3 47 47 SW 12 19 30.06 1018 10 16.09344 N/A
5:35 pm 17:35 Sunny 87 30.3 66 18.8 50 50 SW 10 17 30.06 1018 10 16.09344 N/A
5:55 pm 17:55 Sunny 86 30.2 65 18.3 49 49 SW 9 15 30.06 1018 10 16.09344 N/A
6:15 pm 18:15 Sunny 86 29.9 65 18.4 50 50 SW 10 17 30.06 1018 10 16.09344 N/A
6:35 pm 18:35 Sunny 85 29.3 65 18.6 53 53 SSW 9 15 30.06 1018 10 16.09344 N/A
6:55 pm 18:55 Sunny 84 28.8 65 18.3 53 53 SSW 8 13 30.12 1020 10 16.09344 N/A
7:15 pm 19:15 Sunny 82 27.8 65 18.3 56 56 SW 6 9 30.12 1020 10 16.09344 N/A
7:35 pm 19:35 Sunny 80 26.4 65 18.5 62 62 SW 3 6 30.12 1020 10 16.09344 N/A
7:55 pm 19:55 Clear 78 25.4 66 19 68 68 SW 3 6 30.12 1020 10 16.09344 N/A
8:15 pm 20:15 Clear 73 22.5 67 19.4 83 83 W 3 6 30.12 1020 10 16.09344 N/A
8:35 pm 20:35 Partly Cloudy 72 22 67 19.5 86 86 Calm 30.12 1020 10 16.09344 N/A
8:55 pm 20:55 Cloudy 72 22.3 67 19.4 84 84 Calm 30.12 1020 10 16.09344 N/A
9:15 pm 21:15 Partly Cloudy 71 21.9 66 18.9 83 83 Calm 30.15 1021 10 16.09344 N/A
9:35 pm 21:35 Clear 71 21.5 66 18.8 85 85 Calm 30.15 1021 10 16.09344 N/A
9:55 pm 21:55 Clear 70 21 67 19.2 90 90 Calm 30.15 1021 10 16.09344 N/A
10:15 pm 22:15 Clear 69 20.6 66 18.9 90 90 Calm 30.15 1021 10 16.09344 N/A
10:35 pm 22:35 Cloudy 69 20.7 66 18.8 89 89 Calm 30.15 1021 10 16.09344 N/A
10:55 pm 22:55 Partly Cloudy 69 20.4 66 18.7 90 90 Calm 30.15 1021 10 16.09344 N/A
11:15 pm 23:15 Clear 68 20.2 65 18.6 91 91 Calm 30.18 1022 10 16.09344 N/A
11:35 pm 23:35 Clear 67 19.7 65 18.5 93 93 Calm 30.18 1022 10 16.09344 N/A
11:55 pm 23:55 Clear 67 19.6 65 18.5 93 93 Calm 30.18 1022 10 16.09344 N/A

Powered by AerisWeather